Weather History for Rionegro, Colombia

Change the Weather History Date:

Saturday, March 2, 2013

  Actual Average Record
Temperature  
Mean Temperature 64 °F -  
Max Temperature 73 °F 69 °F 77 °F (2002)
Min Temperature 54 °F 54 °F 50 °F (2007)
Degree Days  
Heating Degree Days 2    
Growing Degree Days 14 (Base 50)    
Moisture  
Dew Point 56 °F    
Average Humidity 77    
Maximum Humidity 100    
Minimum Humidity 35    
Precipitation  
Precipitation 0.01 in - - ()
Sea Level Pressure  
Sea Level Pressure 30.21 in    
Wind  
Wind Speed 3 mph ()    
Max Wind Speed 14 mph    
Max Gust Speed -    
Visibility 5.0 miles    
Events Fog    
Averages and records for this station are not official NWS values.
T = Trace of Precipitation, MM = Missing Value Source: Averaged Metar Reports

Daily Weather History Graph

Daily Weather History Graph

Search for Another Location

Airport:

Trip Planner

Search our weather history database for the weather conditions in past years. The results will help you decide how hot, cold, wet, or windy it might be!

Date:

Astronomy

Mar. 02, 2013 Rise Set
Actual Time 6:13 AM COT 6:14 PM COT
Civil Twilight 5:52 AM COT 6:35 PM COT
Nautical Twilight 5:28 AM COT 6:59 PM COT
Astronomical Twilight 5:04 AM COT 7:23 PM COT
Moon 10:35 PM COT (3/2) 9:50 AM COT (3/2)
Length of Visible Light 12h 42m
Length of Day
12h 00m
Waning Gibbous, 74% of the Moon is Illuminated
Mar 2
Waning Gibbous
Mar 4
Last Quarter
Mar 11
New
Mar 19
First Quarter
Mar 27
Full

Hourly Weather History & Observations

Time (COT) Temp. Heat Index Dew Point Humidity Pressure Visibility Wind Dir Wind Speed Gust Speed Precip Events Conditions
12:00 AM 60.8 °F - 59.0 °F 94% 30.25 in 3.7 mi Calm Calm - N/A Fog Fog
1:00 AM 60 °F - 58 °F 91%  in 3 mi Calm Calm - -   Haze
1:00 AM 60.8 °F - 59.0 °F 94% 30.23 in 3.1 mi Calm Calm - N/A   Mostly Cloudy
2:00 AM 59.0 °F - 57.2 °F 94% 30.22 in 4.3 mi ENE 3.5 mph - N/A Fog Fog
3:00 AM 57.2 °F - 57.2 °F 100% 30.20 in 2.5 mi Variable 2.3 mph - N/A   Mostly Cloudy
4:00 AM 59.0 °F - 57.2 °F 94% 30.19 in 1.9 mi Calm Calm - N/A   Mostly Cloudy
5:00 AM 55.4 °F - 55.4 °F 100% 30.18 in 0.3 mi Calm Calm - N/A Fog Fog
5:30 AM 55.4 °F - 55.4 °F 100% 30.19 in 0.1 mi Calm Calm - N/A Fog Fog
6:00 AM 55.4 °F - 55.4 °F 100% 30.20 in 0.1 mi Calm Calm - N/A Fog Fog
6:30 AM - - - N/A% 30.23 in 0.2 mi Calm Calm - N/A Fog Fog
7:00 AM 55 °F - 55 °F 100%  in 0 mi Calm Calm - - Fog Heavy Fog
7:00 AM 55.4 °F - 55.4 °F 100% 30.23 in 0.2 mi Calm Calm - N/A Fog Fog
7:30 AM - - - N/A% 30.24 in 1.2 mi Calm Calm - N/A Fog Patches of Fog
8:00 AM 57.2 °F - 55.4 °F 94% 30.24 in 1.9 mi Variable 2.3 mph - N/A Fog Patches of Fog
9:00 AM 59.0 °F - 55.4 °F 88% 30.26 in 2.5 mi North 4.6 mph - N/A   Haze
10:00 AM 64 °F - 56 °F 68%  in 12 mi NE 4.5 mph - -   Haze
10:00 AM 64.4 °F - 55.4 °F 73% 30.28 in 6.2 mi NE 4.6 mph - N/A   Scattered Clouds
11:00 AM 80.6 °F 80.8 °F 57.2 °F 45% 30.04 in 6.2 mi NNW 5.8 mph - N/A   Mostly Cloudy
12:00 PM 69.8 °F - 53.6 °F 56% 30.25 in 6.2 mi East 11.5 mph - N/A   Mostly Cloudy
1:00 PM 71 °F - 53 °F 42%  in 12 mi East 11.2 mph - -   Haze
1:00 PM 71.6 °F - 53.6 °F 53% 30.23 in 6.2 mi East 11.5 mph - N/A   Scattered Clouds
2:00 PM 71.6 °F - 51.8 °F 50% 30.20 in 6.2 mi East 11.5 mph - N/A   Scattered Clouds
3:00 PM 73.4 °F - 51.8 °F 47% 30.17 in 6.2 mi East 11.5 mph - N/A   Scattered Clouds
4:00 PM 72 °F - 50 °F 35%  in 12 mi East 13.4 mph - -   Haze
4:00 PM 71.6 °F - 50.0 °F 46% 30.16 in 6.2 mi East 13.8 mph - N/A   Scattered Clouds
5:00 PM 69.8 °F - 51.8 °F 53% 30.16 in 6.2 mi ENE 11.5 mph - N/A   Scattered Clouds
6:00 PM 68.0 °F - 53.6 °F 60% 30.18 in 6.2 mi East 9.2 mph - N/A   Scattered Clouds
7:00 PM 65 °F - 56 °F 64%  in 12 mi Calm Calm - -   Haze
7:00 PM 66.2 °F - 55.4 °F 68% 30.20 in 6.2 mi Calm Calm - N/A   Partly Cloudy
8:00 PM 62.6 °F - 60.8 °F 94% 30.22 in 6.2 mi NE 4.6 mph - N/A   Scattered Clouds
9:00 PM 62.6 °F - 59.0 °F 88% 30.25 in 6.2 mi North 5.8 mph - N/A   Mostly Cloudy
10:00 PM 62 °F - 59 °F 88%  in 9 mi North 6.7 mph - -   Haze
10:00 PM 62.6 °F - 59.0 °F 88% 30.28 in 6.2 mi North 5.8 mph - N/A   Scattered Clouds
11:00 PM 62.6 °F - 59.0 °F 88% 30.28 in 6.2 mi North 4.6 mph - N/A   Mostly Cloudy